Content
SEND FEEDBACK

Daily
Averages
Monthly
Summary
United States of America

SOUTH LAKE TAHOE - AIRPORT, CALIFORNIA


Home > North America > United States > California
Elevation: 6250 feet     Latitude: 38 54N     Longitude: 120 00W

WEATHER
 
SELECT A DAY
Number of Records: 174,420;   Date Range: 1/1/95 - 7/29/14
 
SHARE

PRINT THIS DATA

[ ← Previous Day ]
WEATHER ALMANAC - APRIL 17, 2013
[ Next Day → ]
[ °C ]   °F
Weather ElementAverageHighLow
Temperature31.9 °F44.1 °F (4:53 pm)21.9 °F (4:53 am)
Dewpoint13.8 °F19.4 °F (12:37 am)9 °F (7:53 am)
Humidity50.5 %75 % (4:53 am)24 % (4:53 pm)
Barometer30.20 in30.31 in (9:53 pm)30.12 in (12:37 am)
Wind Speed6.2 mph13.8 mph (2:53 pm)
Wind Gust21.9 mph (1:53 pm)
Weather ElementAverage
Visibility9.4 mi
Wind DirectionNNE (31.4 °)

Weather ElementTotal
Precipitation---
Heating Degree Days32 (Base 65)
Averaged from 28 records on April 17, 2013
WEATHER CONDITIONS BREAKOUT
WIND DIRECTION BREAKOUT
WEATHER BY HOUR - APRIL 17, 2013
[ °C ]   °F
Local TimeTemperatureDewpointHumidityBarometerVisibilityWind DirectionWind SpeedGust SpeedPrecipitationEventsConditions
12:37 AM28.4 °F19.4 °F69 %30.12 in5.0 miVariable4.6 mph0.00 inSnowLight Snow
12:49 AM28.4 °F19.4 °F69 %30.12 in5.0 miNNE (20°)11.5 mph16.1 mph0.00 inSnowLight Snow
12:53 AM28.0 °F19.0 °F69 %30.15 in4.0 miNorth (360°)8.1 mph0.00 inSnowLight Snow
1:00 AM28.4 °F19.4 °F69 %30.12 in8.0 miNorth (10°)9.2 mph0.00 inSnowLight Snow
1:18 AM28.4 °F17.6 °F64 %30.12 in10.0 miNorth (10°)5.8 mph0.00 inOvercast
1:34 AM26.6 °F17.6 °F69 %30.12 in10.0 miVariable3.5 mph0.00 inScattered Clouds
1:53 AM26.1 °F18.0 °F71 %30.13 in10.0 miCalm0.00 inClear
2:53 AM27.0 °F15.1 °F61 %30.14 in10.0 miNNE (20°)8.1 mphClear
3:53 AM24.1 °F16.0 °F71 %30.15 in10.0 miCalmClear
4:53 AM21.9 °F15.1 °F75 %30.16 in10.0 miCalmClear
5:53 AM21.9 °F12.0 °F66 %30.17 in10.0 miCalmClear
7:53 AM28.0 °F9.0 °F45 %30.18 in10.0 miENE (70°)8.1 mphClear
8:53 AM30.0 °F10.9 °F45 %30.19 in10.0 miNE (50°)9.2 mphClear
9:53 AM30.9 °F12.9 °F47 %30.21 in10.0 miENE (70°)9.2 mph18.4 mphClear
10:53 AM33.1 °F12.0 °F42 %30.23 in10.0 miNE (50°)9.2 mphClear
11:53 AM35.1 °F12.0 °F39 %30.23 in10.0 miENE (60°)8.1 mphClear
12:53 PM37.9 °F14.0 °F38 %30.22 in10.0 miNNE (20°)8.1 mphClear
1:53 PM39.9 °F12.0 °F32 %30.22 in10.0 miNNE (30°)11.5 mph21.9 mphClear
2:53 PM42.1 °F12.0 °F29 %30.21 in10.0 miNorth (10°)13.8 mph21.9 mphClear
3:53 PM43.0 °F10.0 °F26 %30.21 in10.0 miNNE (30°)10.4 mph19.6 mphClear
4:53 PM44.1 °F9.0 °F24 %30.22 in10.0 miNNE (30°)9.2 mph17.3 mphClear
5:53 PM42.1 °F9.0 °F26 %30.24 in10.0 miNorth (10°)9.2 mph16.1 mphClear
6:53 PM39.0 °F9.0 °F29 %30.26 in10.0 miNorth (10°)9.2 mphClear
7:53 PM36.0 °F10.0 °F34 %30.27 in10.0 miNNE (20°)4.6 mphClear
8:53 PM33.1 °F12.0 °F42 %30.29 in10.0 miVariable3.5 mphClear
9:53 PM30.9 °F14.0 °F50 %30.31 in10.0 miCalmClear
10:53 PM28.9 °F15.1 °F56 %30.31 in10.0 miCalmClear
11:53 PM28.9 °F15.1 °F56 %30.30 in10.0 miCalmClear
Hourly data recorded from KTVL, located miles away from South Lake Tahoe - Airport, California







STORIES FROM OUR PARTNERS